Dewpoint
6 7 7 5 4 3 3 2 2 1 -1 -1 1 1 -1 -3 -3 -3 -3 -3 -3 -1 -0 -1 -1 -1 -1 -1 -1 0 3 4 10 11 12 12 12 12 11 12 11 11 11 11
5 6 4 2 3 4 3 2 3 1 -1 -1 -1 -0 -2 -3 -3 -3 -4 -4 -4 -3 -3 -1 -1 -1 -1 -1 -2 -1 1 4 6 10 10 11 11 11 10 11 11 11 11 11
5 2 1 2 2 2 2 2 2 2 -0 -1 -0 0 -1 -3 -3 -3 -4 -4 -4 -4 -4 -4 -4 -2 -2 -2 -1 -1 0 2 4 4 5 7 10 11 10 11 11 11 11 12
3 1 1 2 3 1 3 0 1 1 2 4 -0 4 1 -2 -5 -5 -4 -3 -4 -4 -4 -4 -4 -4 -5 -4 -3 -1 -0 1 1 4 4 5 8 9 11 10 11 11 11 11
3 2 2 2 2 1 2 0 1 1 2 2 2 3 0 -1 -3 -5 -8 -8 -5 -4 -4 -4 -4 -4 -4 -4 -5 -5 -3 -1 1 4 4 4 6 8 9 10 10 11 11 12
2 -0 1 1 -0 -0 -0 1 1 2 2 4 2 2 0 -2 -4 -8 -8 -8 -7 -6 -7 -6 -5 -5 -5 -5 -5 -5 -5 -2 -1 1 4 5 4 7 9 10 9 10 10 11
2 2 -0 -0 2 0 1 2 1 6 5 3 1 3 1 -2 -4 -6 -7 -8 -8 -8 -8 -8 -8 -7 -6 -6 -6 -6 -5 -5 -0 1 3 5 6 6 7 8 8 8 11 11
3 4 2 0 1 2 3 2 2 4 4 4 0 3 -1 -6 -5 -7 -7 -8 -8 -8 -8 -8 -8 -5 -4 -3 -3 -3 -4 -5 -4 1 2 4 7 9 9 9 8 10 11 11
3 4 1 0 -0 1 3 3 1 2 1 1 1 -3 -6 -8 -6 -8 -7 -7 -7 -7 -7 -7 -4 -4 -3 -3 -5 -6 -2 -3 -4 -1 5 6 8 10 9 9 11 11 10 10
2 5 2 2 1 1 1 0 2 0 0 2 1 -1 -3 -3 -3 -4 -4 -5 -4 -4 -5 -4 -2 -2 -2 -3 -7 -4 -2 -2 -3 4 7 7 8 10 10 10 10 10 10 9
0 2 4 2 3 3 3 4 2 1 1 2 3 1 -4 -4 -4 -4 -4 -3 -3 -3 -3 -4 -4 -3 -3 -4 -4 -1 -1 -2 0 7 8 8 9 10 10 9 8 9 9 8
0 3 4 2 0 0 1 2 1 -0 -1 0 3 3 -3 -4 -4 -3 -2 0 0 0 -1 -3 -2 -3 -4 -5 -5 2 2 1 4 7 8 9 10 9 9 9 8 9 7 5
1 3 3 4 2 1 2 2 1 1 1 0 3 2 -4 -4 -3 -3 1 2 2 2 0 -1 0 -1 -2 -3 -2 4 4 4 6 6 7 9 8 9 8 8 8 6 5 2
-1 3 1 3 3 3 2 2 1 3 3 2 2 1 -1 -2 -1 1 3 2 1 1 2 2 2 1 0 1 3 5 5 6 6 7 7 7 7 7 7 7 5 5 1 -2
1 2 2 2 2 3 3 2 2 1 2 4 1 1 0 1 3 3 4 2 3 3 3 3 3 3 4 3 6 5 6 6 7 7 7 7 5 4 4 2 1 1 0 -4
1 2 3 2 2 3 3 2 2 3 2 2 2 3 2 3 3 3 4 5 4 5 4 4 4 4 5 5 5 4 4 4 5 6 5 4 2 2 0 -2 -2 -3 -3 -2
3 2 3 3 2 2 4 3 3 3 3 3 6 5 5 5 4 4 5 4 4 3 5 3 3 4 4 3 2 1 0 1 2 1 0 -2 -3 -4 -6 -4 -2 -4 -3 -3
4 2 3 3 3 6 2 1 2 4 4 5 5 5 4 5 4 4 1 2 1 3 4 3 1 0 -1 -0 -1 -1 -1 -2 -3 -5 -6 -7 -7 -4 -1 -3 -3 -2 -2 -0
2 3 6 5 5 2 2 4 3 4 6 5 5 4 5 4 5 4 -0 -1 -1 -0 -1 0 1 1 -0 -2 -4 -3 -5 -6 -7 -8 -7 -3 -1 -5 -4 -4 -4 -7 -6 -5
3 3 5 4 4 5 3 2 2 4 8 5 4 5 4 4 7 4 1 -1 -3 -2 -2 -3 -3 -3 -4 -6 -5 -5 -6 -5 -4 -4 -1 -4 -2 -3 -5 -5 -1 -1 -6 -8
5 5 6 3 5 3 -0 2 4 7 5 3 4 6 4 5 4 1 1 -1 -3 -4 -4 -5 -6 -5 -5 -5 -5 -4 -2 -1 -1 -2 -0 -0 0 0 0 -0 -3 -4 -10 -15
4 4 5 4 6 4 -1 4 5 3 3 3 4 4 3 2 -0 -1 0 -0 -0 -1 -2 -2 -3 -4 -3 -2 -1 -0 -1 -0 0 -0 -0 -0 -1 -1 -3 -3 -11 -16 -16 -16
4 2 4 3 2 -2 -1 1 2 2 2 2 3 4 4 2 -1 -2 -2 -1 0 0 -1 -1 -1 -1 -1 -1 -0 -0 -0 -0 -0 -2 -8 -6 -1 -2 -13 -16 -17 -17 -15 -13
2 -0 3 3 2 1 0 2 2 2 1 1 1 3 4 3 0 -3 -3 -3 -2 -1 -0 -0 -1 -1 -1 -0 0 1 -2 -7 -7 -1 -0 -2 -10 -13 -17 -18 -17 -14 -14 -20
3 1 2 3 2 2 2 2 1 1 1 1 0 1 5 4 2 -1 -4 -4 -5 -4 -4 -3 -2 -2 -3 -3 -2 -2 -2 -0 -0 -2 -8 -10 -13 -18 -18 -17 -13 -15 -21 -22
2 3 4 4 2 2 2 2 1 1 0 -0 1 2 4 4 3 2 1 -0 -3 -5 -6 -5 -4 -5 -5 -3 -0 -1 -3 -5 -6 -8 -10 -15 -18 -18 -16 -13 -17 -21 -22 -23
Wind_Speed
7 3 5 9 6 5 4 3 5 4 5 4 8 9 12 15 25 25 25 32 35 35 30 24 25 29 35 37 38 38 35 30 39 39 37 34 33 32 35 30 28 27 30 27
3 4 5 6 9 9 9 7 4 6 3 5 10 18 16 19 18 29 32 31 38 40 41 37 31 27 25 33 40 35 38 40 36 39 37 38 36 29 36 32 30 29 30 32
6 4 7 5 5 4 2 2 2 4 6 4 9 10 8 8 20 33 35 35 34 41 40 36 35 36 33 28 32 34 33 34 44 43 42 40 37 33 34 34 34 34 33 35
3 3 2 5 4 4 1 5 1 3 4 4 4 6 6 8 8 5 18 26 35 38 39 35 30 34 35 35 28 30 32 31 27 39 44 43 44 42 38 38 38 38 36 37
6 5 5 3 3 4 3 5 5 4 3 5 3 2 7 6 4 5 3 12 26 24 22 24 28 30 30 28 27 28 38 35 35 31 41 42 45 41 39 41 37 39 39 40
4 6 4 5 2 4 6 3 3 3 3 2 7 5 4 2 4 2 4 18 12 13 9 7 13 17 18 19 21 25 24 37 37 37 39 44 43 43 42 44 40 42 42 40
3 3 1 2 4 3 4 5 2 1 1 6 2 4 7 10 13 8 9 9 7 7 5 4 7 7 9 12 15 17 22 26 34 42 41 44 44 44 44 46 44 45 45 40
5 1 8 5 5 6 5 5 4 5 3 4 4 6 6 7 14 16 8 2 7 8 6 7 10 12 13 15 17 18 22 27 27 36 44 45 45 46 43 45 44 44 42 39
4 3 6 7 3 6 3 4 4 1 3 3 5 7 9 8 7 7 10 6 10 16 19 14 13 14 12 13 17 21 24 26 27 30 42 45 44 42 40 41 42 39 38 35
2 4 7 5 5 4 5 4 3 2 0 4 5 5 7 4 7 7 8 11 19 22 23 11 11 11 12 14 20 22 23 27 26 30 39 41 41 37 36 36 35 34 34 32
1 4 2 3 5 8 5 2 2 3 4 4 2 6 5 4 4 1 4 17 24 26 27 28 22 16 12 14 16 16 19 27 26 34 38 38 36 33 33 31 30 33 34 34
2 3 3 7 5 7 4 5 5 4 5 3 2 8 8 13 4 9 23 27 30 26 32 26 18 14 17 19 19 12 21 25 31 34 31 32 30 30 31 29 29 34 35 33
5 3 3 3 3 4 5 8 5 3 2 6 2 6 2 7 15 30 20 27 27 27 19 13 12 10 11 14 16 17 23 27 29 29 29 30 30 32 29 29 33 35 34 29
7 4 5 5 2 4 4 5 7 9 3 4 10 14 22 18 19 23 31 24 12 13 19 14 9 7 10 12 15 16 24 26 27 31 30 31 30 30 30 32 33 33 31 28
3 3 2 5 7 5 7 7 8 9 16 8 21 16 22 21 23 25 29 22 20 20 19 15 16 5 6 8 13 17 26 29 32 33 29 28 30 29 30 34 35 33 29 26
2 1 2 5 9 10 10 12 13 17 20 16 23 26 22 22 25 18 12 15 17 18 14 9 4 5 7 10 14 21 26 30 30 29 27 28 29 32 35 37 34 31 27 22
4 3 1 4 4 3 5 10 16 7 7 10 11 13 13 15 8 9 14 17 15 17 12 12 7 9 14 17 20 21 24 24 23 25 27 30 33 38 37 33 29 27 23 18
5 4 3 3 4 1 4 3 6 9 5 6 9 10 11 14 3 10 14 11 12 12 13 17 16 17 18 19 19 19 19 21 24 27 32 36 37 34 30 29 26 22 18 12
3 4 2 2 3 6 1 2 3 5 4 4 6 9 11 15 7 8 12 11 9 9 11 14 15 16 17 17 19 19 24 27 29 28 27 26 27 30 29 25 21 18 15 12
4 3 1 2 1 3 1 2 2 4 2 6 7 5 8 11 2 2 9 6 7 8 9 12 14 15 17 21 20 24 26 25 25 23 27 27 26 25 24 20 16 11 10 6
3 3 4 6 3 6 8 5 5 2 4 5 6 2 3 2 2 4 5 8 8 9 12 14 14 17 19 18 16 20 17 22 26 28 28 26 23 19 16 15 13 9 6 4
7 6 4 5 3 7 4 4 3 6 4 4 4 4 9 12 10 12 16 13 12 12 12 13 19 22 20 22 20 27 29 29 29 27 24 21 19 17 15 11 10 7 3 1
3 6 5 7 6 7 6 9 5 4 4 3 3 5 10 14 15 13 14 19 19 15 15 17 19 21 19 24 25 29 29 25 24 23 24 19 15 13 11 8 6 3 2 3
4 9 3 2 5 10 21 8 4 6 4 5 5 7 13 15 16 18 17 19 19 21 24 24 24 24 24 22 24 21 25 25 24 20 18 15 13 11 9 5 3 1 2 3
5 3 5 5 8 2 3 2 5 6 5 4 2 8 12 16 16 21 23 21 20 20 21 23 25 25 25 24 26 25 23 19 17 17 16 13 10 8 6 3 2 2 4 6
5 6 4 4 4 2 2 5 5 5 3 2 4 10 12 13 17 21 21 22 24 26 25 23 23 25 26 25 23 22 19 17 17 16 14 11 9 6 4 3 4 5 8 11
Wind_Direction
172 141 185 197 207 245 320 265 245 253 281 258 240 251 260 253 262 268 261 261 256 251 244 246 240 241 242 240 240 239 234 229 220 214 214 223 222 214 220 205 217 220 223 223
108 199 199 187 211 237 265 264 277 295 343 358 307 291 273 258 246 247 246 250 251 253 252 249 246 239 248 238 237 237 236 232 221 218 220 224 229 221 217 208 218 224 231 228
138 140 196 220 286 176 262 257 284 267 335 352 341 284 255 273 242 245 247 245 247 249 249 248 249 248 250 248 240 235 235 233 230 227 226 224 223 223 214 211 216 220 229 228
175 173 178 145 227 151 247 13 49 35 35 261 65 290 292 269 286 233 244 241 239 244 245 246 249 249 250 249 248 246 247 242 235 231 229 225 218 217 215 213 213 218 225 232
209 143 142 155 203 165 199 76 60 41 29 7 283 201 279 257 263 296 279 297 244 240 243 245 245 251 249 246 247 250 245 248 244 233 226 226 221 222 220 215 220 223 222 225
120 102 134 178 80 116 132 83 32 47 68 309 229 187 282 252 221 211 307 347 270 231 216 223 237 238 240 242 247 247 246 239 241 237 232 226 226 220 219 220 224 220 222 222
71 142 128 102 117 122 101 88 32 268 233 234 104 189 252 286 288 276 291 293 148 138 136 188 231 243 251 253 255 263 262 252 238 236 237 228 227 227 227 225 227 220 215 212
145 248 166 193 170 172 160 147 156 211 212 287 308 229 254 233 257 285 236 239 208 193 237 243 247 245 248 250 254 259 253 256 251 236 236 233 225 222 226 228 228 221 219 214
140 279 157 158 139 127 179 201 186 83 309 51 259 298 303 312 36 51 24 2 356 340 319 272 231 247 264 273 274 273 251 252 250 241 230 224 222 219 226 229 222 218 214 212
149 112 154 145 114 241 167 160 79 356 289 275 282 266 239 21 27 31 29 18 354 339 332 274 258 260 281 290 288 276 251 240 243 228 225 222 223 216 224 226 220 214 208 207
152 98 67 117 200 185 189 193 171 126 155 197 294 271 227 156 109 119 24 331 318 311 302 289 261 268 285 292 285 284 243 228 228 221 218 216 215 214 221 219 211 206 206 200
117 104 160 207 216 205 175 196 174 129 272 236 197 261 283 288 99 346 332 328 315 304 309 272 241 257 282 294 280 274 232 221 217 218 210 215 209 217 214 208 204 202 199 193
140 144 156 127 351 156 198 215 190 177 69 217 155 263 270 339 325 323 312 307 304 305 315 259 234 249 270 284 270 269 235 223 213 213 215 205 214 210 204 200 196 192 188 184
135 154 183 176 134 126 197 202 188 185 175 255 232 274 281 291 298 311 304 304 337 338 306 294 238 251 267 280 273 253 222 211 207 203 203 202 207 193 193 191 186 181 179 176
97 168 210 250 248 219 223 210 211 204 232 234 273 273 284 301 299 291 288 271 296 293 275 264 256 246 244 280 256 221 197 195 186 182 182 190 186 185 182 178 176 176 171 171
55 259 29 292 255 230 235 234 221 229 244 252 259 276 278 285 287 303 341 326 312 298 260 235 261 206 197 215 205 185 172 167 169 173 179 180 178 179 175 173 169 164 161 161
136 176 160 270 311 313 271 231 208 210 228 230 251 260 304 311 350 358 339 329 335 330 266 219 203 187 187 185 182 165 161 160 165 166 168 171 172 169 166 162 157 154 151 153
153 185 158 264 309 210 266 255 167 200 239 247 258 281 301 316 183 22 8 12 26 35 122 158 164 158 152 153 150 154 153 151 156 158 161 165 164 159 153 153 149 144 151 153
141 165 242 285 303 286 249 232 194 181 242 213 245 278 312 321 225 55 24 36 58 71 110 138 148 149 150 155 156 155 150 150 147 141 148 153 148 146 145 141 138 140 143 148
153 133 152 341 2 268 229 227 163 137 263 223 202 305 325 349 300 42 5 44 81 97 114 128 142 148 149 140 156 152 140 145 143 149 143 145 142 136 136 139 146 139 128 135
177 187 205 230 258 285 255 201 168 29 250 207 194 183 39 81 56 85 55 88 97 113 126 138 144 144 147 152 160 142 138 144 137 137 144 145 146 146 142 137 134 138 143 158
175 173 187 193 197 262 243 129 225 237 266 251 205 165 139 133 130 103 92 99 109 124 134 140 141 138 139 139 150 142 146 142 139 142 144 141 130 131 134 136 134 138 125 43
208 186 176 182 214 241 285 290 276 311 303 290 213 174 167 158 149 143 130 106 108 127 133 121 125 127 135 139 136 140 137 139 145 141 130 128 140 132 131 129 129 112 50 342
239 194 231 118 253 251 274 253 304 333 310 285 260 189 178 167 161 152 147 142 132 128 130 133 133 136 140 144 147 143 137 137 140 144 142 135 137 136 137 130 111 58 353 341
239 135 202 253 286 277 198 290 332 326 318 305 251 195 189 174 160 163 155 153 150 149 146 143 138 137 137 143 148 146 147 151 139 134 140 146 148 140 136 131 87 26 359 344
204 210 192 227 242 246 257 304 319 303 305 8 169 160 182 184 170 169 162 163 161 161 159 160 156 149 150 153 148 146 146 147 150 151 148 143 142 138 115 66 28 1 346 341
Height
1465 1471 1476 1476 1477 1476 1478 1478 1478 1473 1469 1470 1468 1466 1460 1454 1453 1448 1448 1449 1447 1447 1449 1452 1454 1458 1460 1463 1466 1470 1473 1474 1475 1476 1480 1483 1485 1490 1493 1498 1501 1503 1505 1508
1468 1470 1469 1471 1474 1476 1478 1479 1477 1469 1465 1467 1465 1457 1453 1445 1442 1439 1439 1439 1438 1441 1443 1445 1448 1450 1453 1455 1459 1462 1466 1469 1470 1471 1474 1477 1480 1485 1488 1493 1496 1498 1500 1502
1466 1466 1466 1471 1475 1474 1475 1476 1476 1478 1471 1468 1467 1454 1441 1429 1425 1428 1428 1429 1432 1433 1435 1437 1440 1444 1447 1449 1452 1456 1459 1462 1464 1465 1466 1470 1476 1480 1483 1487 1489 1492 1494 1497
1462 1462 1465 1469 1473 1473 1477 1475 1474 1476 1480 1485 1476 1477 1450 1429 1424 1423 1421 1422 1423 1425 1427 1430 1434 1437 1440 1443 1447 1449 1452 1455 1458 1460 1461 1460 1464 1469 1475 1477 1481 1486 1488 1491
1464 1462 1465 1470 1471 1471 1477 1475 1478 1479 1484 1490 1479 1484 1446 1435 1427 1422 1419 1416 1416 1418 1421 1424 1428 1431 1434 1437 1439 1442 1446 1448 1451 1454 1456 1457 1459 1465 1469 1472 1476 1479 1483 1486
1459 1461 1466 1469 1470 1471 1475 1477 1479 1482 1489 1500 1476 1474 1453 1434 1424 1420 1417 1415 1413 1418 1420 1422 1425 1427 1429 1431 1433 1436 1438 1440 1443 1445 1446 1449 1451 1457 1463 1468 1470 1472 1475 1479
1462 1465 1467 1467 1473 1473 1475 1484 1512 1488 1493 1497 1466 1474 1449 1430 1421 1418 1417 1416 1416 1419 1420 1422 1423 1425 1426 1428 1430 1431 1432 1433 1436 1438 1438 1441 1447 1451 1456 1461 1465 1466 1469 1473
1475 1481 1468 1466 1470 1475 1478 1482 1505 1502 1502 1480 1463 1463 1437 1419 1415 1414 1413 1414 1416 1418 1419 1419 1419 1420 1421 1423 1424 1425 1427 1427 1429 1429 1431 1435 1440 1444 1451 1456 1460 1461 1464 1469
1469 1467 1460 1463 1465 1471 1477 1486 1480 1493 1489 1504 1471 1448 1428 1416 1418 1416 1416 1417 1419 1417 1417 1417 1415 1415 1417 1418 1419 1418 1418 1420 1420 1422 1424 1427 1433 1438 1446 1451 1455 1460 1463 1466
1452 1466 1461 1463 1465 1469 1473 1473 1492 1507 1512 1499 1469 1455 1437 1423 1423 1421 1421 1421 1421 1420 1419 1416 1413 1412 1412 1413 1413 1411 1410 1412 1414 1415 1419 1421 1429 1436 1442 1446 1450 1455 1460 1464
1448 1459 1473 1466 1469 1468 1471 1473 1476 1484 1493 1501 1489 1456 1424 1420 1420 1421 1422 1422 1420 1418 1415 1413 1409 1408 1408 1409 1408 1405 1405 1407 1408 1410 1412 1419 1426 1433 1437 1442 1447 1453 1458 1461
1449 1458 1472 1471 1463 1463 1467 1470 1471 1500 1496 1495 1486 1459 1419 1415 1418 1419 1416 1415 1414 1411 1406 1402 1402 1403 1403 1402 1403 1402 1402 1402 1402 1406 1412 1418 1424 1429 1433 1438 1443 1449 1455 1459
1450 1460 1465 1463 1464 1462 1468 1464 1467 1473 1482 1492 1486 1452 1416 1418 1417 1417 1417 1415 1410 1405 1403 1399 1398 1397 1397 1397 1397 1396 1398 1399 1399 1405 1411 1417 1421 1427 1432 1436 1440 1446 1452 1458
1447 1455 1468 1470 1459 1459 1468 1461 1465 1467 1481 1463 1457 1437 1420 1422 1419 1416 1412 1409 1404 1402 1400 1400 1397 1394 1394 1394 1394 1394 1395 1396 1398 1402 1409 1414 1420 1425 1429 1434 1440 1445 1452 1457
1450 1465 1458 1457 1455 1456 1458 1460 1459 1467 1455 1461 1428 1433 1421 1421 1419 1412 1407 1404 1401 1398 1397 1396 1396 1394 1392 1391 1393 1392 1391 1393 1396 1402 1407 1414 1419 1424 1429 1434 1440 1445 1450 1458
1451 1464 1456 1463 1449 1449 1453 1449 1450 1448 1444 1442 1435 1426 1424 1417 1411 1407 1405 1400 1397 1393 1392 1393 1394 1392 1392 1393 1395 1395 1393 1395 1398 1402 1408 1415 1419 1424 1429 1436 1441 1446 1452 1458
1453 1458 1463 1462 1443 1443 1450 1434 1435 1435 1432 1427 1431 1420 1416 1412 1407 1407 1403 1400 1395 1389 1387 1391 1394 1394 1394 1395 1395 1397 1398 1398 1401 1406 1410 1415 1419 1424 1432 1438 1443 1449 1454 1460
1450 1453 1459 1461 1447 1442 1424 1416 1418 1424 1422 1422 1420 1417 1414 1411 1409 1407 1404 1400 1396 1391 1386 1389 1391 1393 1395 1397 1399 1400 1402 1404 1407 1411 1413 1416 1421 1429 1434 1442 1448 1451 1457 1461
1447 1452 1450 1451 1445 1436 1421 1418 1419 1423 1421 1417 1416 1413 1411 1409 1407 1406 1406 1404 1400 1397 1395 1393 1394 1396 1398 1401 1404 1406 1407 1409 1412 1416 1421 1428 1425 1439 1445 1448 1451 1455 1458 1462
1447 1449 1455 1454 1455 1445 1419 1416 1416 1418 1419 1411 1412 1413 1411 1407 1402 1408 1408 1406 1403 1401 1400 1399 1398 1398 1401 1406 1407 1409 1413 1415 1419 1424 1426 1437 1444 1447 1448 1451 1453 1458 1458 1460
1447 1449 1448 1452 1453 1437 1419 1415 1418 1422 1420 1408 1408 1408 1409 1409 1411 1411 1409 1406 1404 1403 1402 1402 1403 1403 1405 1408 1411 1414 1418 1421 1426 1434 1439 1442 1443 1443 1447 1450 1456 1457 1460 1461
1441 1447 1446 1447 1448 1449 1411 1417 1418 1410 1405 1405 1405 1406 1408 1408 1410 1411 1410 1408 1406 1405 1405 1404 1405 1406 1408 1410 1413 1417 1421 1427 1430 1438 1444 1445 1448 1451 1454 1457 1459 1460 1460 1461
1433 1432 1434 1435 1429 1413 1411 1410 1408 1406 1405 1404 1403 1404 1406 1407 1408 1410 1412 1411 1409 1409 1410 1412 1412 1413 1417 1419 1423 1426 1430 1434 1438 1443 1444 1447 1453 1455 1457 1458 1459 1460 1460 1460
1421 1420 1423 1425 1411 1412 1410 1409 1407 1404 1403 1402 1401 1401 1404 1406 1408 1409 1411 1413 1413 1415 1416 1417 1419 1421 1424 1428 1432 1436 1437 1441 1444 1446 1448 1453 1456 1457 1458 1459 1460 1460 1460 1460
1421 1418 1417 1416 1410 1408 1407 1406 1405 1403 1402 1401 1400 1400 1403 1405 1407 1410 1412 1414 1417 1419 1421 1423 1424 1426 1430 1434 1437 1439 1442 1445 1447 1450 1453 1456 1457 1458 1459 1460 1460 1459 1459 1458
1414 1413 1415 1413 1406 1406 1405 1404 1403 1402 1401 1400 1399 1399 1403 1405 1405 1410 1412 1415 1418 1420 1423 1426 1429 1431 1434 1438 1441 1444 1447 1450 1452 1454 1455 1457 1458 1459 1459 1459 1458 1458 1456 1454